Location: Newark
(14.1000°N, 87.2167°W)
Time: 11:52:56
(UTC+00:00)

Tiangong - Pass Details

Date: 19 September 2021
Orbit: 382 x 385 km, 41.5° (Epoch: 18 October)

Event Time Altitude Azimuth Distance (km) Brightness Sun altitude
Exits shadow 10:38:11 - 193° (SSW) 1,728 4.2 -15.3°
Reaches altitude 10° 10:39:16 10° 182° (S) 1,380 3.8 -15.0°
Maximum altitude 10:41:30 18° 136° (SE) 1,002 3.6 -14.5°
Drops below altitude 10° 10:43:44 10° 90° (E) 1,381 5.3 -13.9°
Sets 10:46:12 0° 70° (ENE) 2,233 6.6 -13.3°
